Regional Weather Roundup
Issued by NWS

Home | Current Version | Previous Version | Text Only | Print | Product List | Glossary Off
Versions: 1 2 3 4 5 6 7 8 9 10 11 12 13 14 15 16 17 18 19 20 21 22 23 24 25 26 27 28 29 30 31 32 33 34 35 36 37 38 39 40 41 42 43 44 45 46 47 48 49 50

000
ASUS43 KDMX 181101
RWRIA

WEATHER ROUNDUP FOR IOWA
NATIONAL WEATHER SERVICE DES MOINES IA
500 AM CST MON DEC 18 2017

NOTE: "FAIR" INDICATES FEW OR NO CLOUDS BELOW 12,000 FEET WITH NO
SIGNIFICANT WEATHER AND/OR OBSTRUCTIONS TO VISIBILITY.

* - THESE STATIONS ARE NOT NWS STATIONS...THUS NOT UNDER NWS
QUALITY CONTROL.  THEY ALSO DO NOT REPORT WEATHER SUCH
AS PRECIPITATION OR FOG.

IAZ001>003-012>014-020>022-031>034-043>046-181200-
   NORTHWEST IOWA

CITY           SKY/WX    TMP DP  RH WIND       PRES   REMARKS
CARROLL *      CLOUDY    25  23  93 CALM      29.92F FOG
DENISON *      CLOUDY    25  25 100 S7        29.93S FOG     WCI  17
LE MARS *      CLEAR     23  21  93 SW6       29.87S WCI  16
ORANGE CITY *  CLEAR     25  23  93 S7        29.85S WCI  17
SHELDON *      CLEAR     23  23 100 S6        29.83F WCI  16
SIOUX CITY     CLOUDY    20  19  96 SE10      29.88F WCI   9
SPENCER        CLEAR     21  20  96 S7        29.86F FOG     WCI  12
STORM LAKE *   CLOUDY    21  19  93 S9        29.87F FOG     WCI  11
$$

IAZ055>058-069>071-079>083-090>094-181200-
   SOUTHWEST IOWA

CITY           SKY/WX    TMP DP  RH WIND       PRES   REMARKS
ATLANTIC *     FOG       25  25 100 S7        29.96S VSB<1/4 WCI  17
AUDUBON *      CLOUDY    21  19  93 CALM      29.94S FOG
CLARINDA *     FOG       27  27 100 SW5       30.01R VSB<1/4 WCI  21
COUNCIL BLFS * CLOUDY    28  28 100 S7        29.95R FOG     WCI  21
CRESTON *      FOG       30  30 100 SW8       29.98S VSB 1/4 WCI  23
HARLAN  *      CLOUDY    21  21 100 SW7       29.98R WCI  13
LAMONI         CLOUDY    32  31  96 W13       29.98R FOG     WCI  22
RED OAK *      FOG       27  27 100 SW5       29.98R VSB<1/4 WCI  21
SHENANDOAH *   CLOUDY    25  25 100 SW3       29.99F FOG
$$

IAZ047>049-059>061-072>074-084-181200-
   CENTRAL IOWA

CITY           SKY/WX    TMP DP  RH WIND       PRES   REMARKS
AMES           CLOUDY    23  22  96 SW8       29.95R FOG     WCI  14
ANKENY *       CLOUDY    25  23  93 SW5       29.98R FOG     WCI  19
BOONE *        CLOUDY    23  23 100 SW8       29.93R FOG     WCI  14
CHARITON *     CLOUDY    32  32 100 W9        29.97R FOG     WCI  24
DES MOINES     FOG       27  25  92 W7        29.97R VSB 1/4 WCI  19
GRINNELL*      CLEAR     25  24  96 SW6       29.96R FOG     WCI  18
KNOXVILLE *    PTCLDY    30  28  93 W9        29.95S FOG     WCI  22
MARSHALLTOWN   PTCLDY    22  22 100 SW5       29.93S FOG     WCI  16
NEWTON *       CLOUDY    25  25 100 W8        29.96R FOG     WCI  16
PELLA *        CLEAR     30  29  95 W6        29.97F FOG     WCI  24
$$

IAZ004>006-015-016-023>025-035-036-181200-
   NORTH CENTRAL IOWA

CITY           SKY/WX    TMP DP  RH WIND       PRES   REMARKS
ALGONA *       CLOUDY    21  21 100 SW8       29.88F FOG     WCI  12
CLARION *      PTCLDY    19  19 100 SW5       29.91F FOG     WCI  13
ESTHERVILLE    CLEAR     23  22  96 S8        29.86F FOG     WCI  14
FORT DODGE *   CLOUDY    20  18  92 SW5       29.92S FOG     WCI  13
MASON CITY     FOG       25  24  96 SW8       29.91S VSB 3/4 WCI  16
FOREST CITY *  FOG       25  23  93 S3        29.89F VSB 1/4
WEBSTER CITY * CLOUDY    19  18  93 SW7       29.91S FOG     WCI  10
IOWA FALLS *   FOG       24  23  95 W5        29.92S VSB 1/4 WCI  18
$$

IAZ007>011-017>019-026>030-037>042-050>054-066-181200-
   NORTHEAST IOWA

CITY           SKY/WX    TMP DP  RH WIND       PRES   REMARKS
CEDAR RAPIDS   CLEAR     26  25  96 SW6       29.93S FOG     WCI  19
CLINTON *      CLOUDY    37  37 100 SW12      29.95R FOG     WCI  29
DECORAH *      CLOUDY    28  28 100 VRB5      29.88F FOG     WCI  23
DUBUQUE        CLOUDY    32  31  96 W10       29.91S FOG     WCI  24
MONTICELLO *   CLOUDY    30  30 100 W5        29.93S FOG     WCI  25
OELWEIN *      CLOUDY    32  32 100 W12       29.91F WCI  23
WATERLOO       CLEAR     26  24  92 W5        29.91F FOG     WCI  20
$$

IAZ064-065-067-068-078-181200-
   EAST CENTRAL IOWA

CITY           SKY/WX    TMP DP  RH WIND       PRES   REMARKS
DAVENPORT      CLOUDY    37  36  96 W14       29.97R FOG     WCI  28
IOWA CITY      CLOUDY    36  32  85 W7        29.97S WCI  30
MT. PLEASANT * CLOUDY    42  42 100 NW5       29.96R FOG
MUSCATINE *    CLOUDY    37  37 100 W10       29.97R FOG     WCI  30
QUAD CITIES    CLOUDY    41  40  96 W7        29.95R FOG
$$

IAZ062-063-075>077-085>089-095>099-181200-
   SOUTHEAST IOWA

CITY           SKY/WX    TMP DP  RH WIND       PRES   REMARKS
BURLINGTON     CLOUDY    44  43  96 SW9       29.95F FOG
FAIRFIELD *    FOG       39  39 100 W8        29.96R VSB 1/4 WCI  34
FORT MADISON * CLOUDY    45  45 100 SW8       29.97S
KEOKUK *       CLOUDY    45  43  93 MISG      29.96S
OSKALOOSA *      N/A     32  32  99 W7        29.97S FOG     WCI  26
OTTUMWA        CLOUDY    36  33  89 W9        29.96F WCI  29
WASHINGTON *   FOG       37  37 100 NW7       29.97S VSB 3/4 WCI  32
$$

ABBREVIATIONS USED IN REMARKS
   TC - TEMPERATURES IN CELSIUS
  WCI - WIND CHILL INDEX
   HX - HEAT INDEX
  VSB - VISIBILITY
$$





USA.gov is the U.S. government's official web portal to all federal, state and local government web resources and services.